Time,TemperatureF,DewpointF,PressureIn,WindDirection,WindDirectionDegrees,WindSpeedMPH,WindSpeedGustMPH,Humidity,HourlyPrecipIn,Conditions,Clouds,dailyrainin,SoftwareType,DateUTC
2013-01-04 00:08:00,69.2,66.8,30.13,SSE,166,0.0,0.0,92,0.00,,,0.00,Wunderground v.1.15,2013-01-04 05:08:00,
2013-01-04 00:18:00,69.0,66.9,30.13,SW,232,0.0,0.0,93,0.00,,,0.00,Wunderground v.1.15,2013-01-04 05:18:00,
2013-01-04 00:28:00,68.8,66.7,30.13,SSW,202,0.0,2.0,93,0.00,,,0.00,Wunderground v.1.15,2013-01-04 05:28:00,
2013-01-04 00:38:00,68.6,66.5,30.12,SW,215,1.0,1.0,93,0.00,,,0.00,Wunderground v.1.15,2013-01-04 05:38:00,
2013-01-04 00:48:00,68.5,66.4,30.12,SW,216,0.0,0.0,93,0.00,,,0.00,Wunderground v.1.15,2013-01-04 05:48:00,
2013-01-04 00:59:00,68.3,66.2,30.12,SSW,197,0.0,0.0,93,0.00,,,0.00,Wunderground v.1.15,2013-01-04 05:59:00,
2013-01-04 01:08:00,68.0,65.9,30.12,SSW,198,0.0,0.0,93,0.00,,,0.00,Wunderground v.1.15,2013-01-04 06:08:00,
2013-01-04 01:18:00,68.0,66.2,30.13,SSW,197,0.0,0.0,94,0.00,,,0.00,Wunderground v.1.15,2013-01-04 06:18:00,
2013-01-04 01:29:00,67.9,66.1,30.12,SSW,198,0.0,0.0,94,0.00,,,0.00,Wunderground v.1.15,2013-01-04 06:29:00,
2013-01-04 01:38:00,67.7,65.9,30.12,SSW,198,0.0,0.0,94,0.00,,,0.00,Wunderground v.1.15,2013-01-04 06:38:00,
2013-01-04 01:48:00,67.7,65.9,30.12,SW,226,0.0,0.0,94,0.00,,,0.00,Wunderground v.1.15,2013-01-04 06:48:00,
2013-01-04 01:59:00,67.4,65.6,30.12,SW,226,0.0,0.0,94,0.00,,,0.00,Wunderground v.1.15,2013-01-04 06:59:00,
2013-01-04 02:08:00,67.1,65.3,30.12,SW,226,0.0,0.0,94,0.00,,,0.00,Wunderground v.1.15,2013-01-04 07:08:00,
2013-01-04 02:18:00,67.1,65.6,30.12,SW,226,0.0,0.0,95,0.00,,,0.00,Wunderground v.1.15,2013-01-04 07:18:00,
2013-01-04 02:29:00,66.8,65.3,30.12,SW,226,0.0,0.0,95,0.00,,,0.00,Wunderground v.1.15,2013-01-04 07:29:00,
2013-01-04 02:38:00,66.5,65.0,30.12,SW,226,0.0,0.0,95,0.00,,,0.00,Wunderground v.1.15,2013-01-04 07:38:00,
2013-01-04 02:48:00,66.5,65.0,30.12,SW,226,0.0,0.0,95,0.00,,,0.00,Wunderground v.1.15,2013-01-04 07:48:00,
2013-01-04 02:59:00,66.3,64.8,30.12,SW,226,0.0,0.0,95,0.00,,,0.00,Wunderground v.1.15,2013-01-04 07:59:00,
2013-01-04 03:09:00,66.2,64.7,30.13,NNW,336,0.0,0.0,95,0.00,,,0.00,Wunderground v.1.15,2013-01-04 08:09:00,
2013-01-04 03:18:00,66.4,65.2,30.13,NNW,336,0.0,0.0,96,0.00,,,0.00,Wunderground v.1.15,2013-01-04 08:18:00,
2013-01-04 03:29:00,66.5,65.0,30.13,NNW,335,0.0,0.0,95,0.00,,,0.00,Wunderground v.1.15,2013-01-04 08:29:00,
2013-01-04 03:39:00,66.4,64.9,30.13,NNW,334,0.0,0.0,95,0.00,,,0.00,Wunderground v.1.15,2013-01-04 08:39:00,
2013-01-04 03:48:00,66.2,64.7,30.13,NNW,336,0.0,0.0,95,0.00,,,0.00,Wunderground v.1.15,2013-01-04 08:48:00,
2013-01-04 03:59:00,66.2,65.0,30.13,NNW,335,0.0,0.0,96,0.00,,,0.00,Wunderground v.1.15,2013-01-04 08:59:00,
2013-01-04 04:09:00,66.2,65.0,30.13,NNW,335,0.0,1.0,96,0.00,,,0.00,Wunderground v.1.15,2013-01-04 09:09:00,
2013-01-04 04:18:00,66.2,65.0,30.13,NNW,335,1.0,1.0,96,0.00,,,0.00,Wunderground v.1.15,2013-01-04 09:18:00,
2013-01-04 04:28:00,66.2,65.0,30.13,NNW,335,1.0,1.0,96,0.00,,,0.00,Wunderground v.1.15,2013-01-04 09:28:00,
2013-01-04 04:39:00,66.3,65.1,30.13,NNW,335,0.0,0.0,96,0.00,,,0.00,Wunderground v.1.15,2013-01-04 09:39:00,
2013-01-04 04:48:00,66.2,65.0,30.13,NNW,336,0.0,0.0,96,0.00,,,0.00,Wunderground v.1.15,2013-01-04 09:48:00,
2013-01-04 04:58:00,66.2,65.0,30.13,NW,326,0.0,0.0,96,0.00,,,0.00,Wunderground v.1.15,2013-01-04 09:58:00,
2013-01-04 05:09:00,66.2,65.0,30.13,NNW,328,1.0,1.0,96,0.00,,,0.00,Wunderground v.1.15,2013-01-04 10:09:00,
2013-01-04 05:19:00,66.2,65.0,30.13,NNW,328,0.0,0.0,96,0.00,,,0.00,Wunderground v.1.15,2013-01-04 10:19:00,
2013-01-04 05:28:00,66.0,64.8,30.14,NNW,328,0.0,0.0,96,0.00,,,0.00,Wunderground v.1.15,2013-01-04 10:28:00,
2013-01-04 05:38:00,66.2,65.3,30.14,NNW,328,0.0,0.0,97,0.00,,,0.00,Wunderground v.1.15,2013-01-04 10:38:00,
2013-01-04 05:49:00,66.1,64.9,30.14,NW,304,0.0,0.0,96,0.00,,,0.00,Wunderground v.1.15,2013-01-04 10:49:00,
2013-01-04 05:59:00,66.0,64.8,30.14,NW,304,0.0,0.0,96,0.00,,,0.00,Wunderground v.1.15,2013-01-04 10:59:00,
2013-01-04 06:09:00,66.3,65.4,30.15,WNW,303,0.0,0.0,97,0.00,,,0.00,Wunderground v.1.15,2013-01-04 11:09:00,
2013-01-04 06:19:00,66.2,65.0,30.15,NW,304,0.0,0.0,96,0.00,,,0.00,Wunderground v.1.15,2013-01-04 11:19:00,
2013-01-04 06:29:00,66.2,65.3,30.15,WNW,302,0.0,0.0,97,0.00,,,0.00,Wunderground v.1.15,2013-01-04 11:29:00,
2013-01-04 06:38:00,66.0,65.1,30.15,WNW,302,0.0,0.0,97,0.00,,,0.00,Wunderground v.1.15,2013-01-04 11:38:00,
2013-01-04 06:48:00,65.8,64.6,30.15,WNW,298,0.0,0.0,96,0.00,,,0.00,Wunderground v.1.15,2013-01-04 11:48:00,
2013-01-04 06:59:00,65.6,64.4,30.16,WNW,298,0.0,0.0,96,0.00,,,0.00,Wunderground v.1.15,2013-01-04 11:59:00,
2013-01-04 07:09:00,65.6,64.7,30.16,WNW,298,0.0,0.0,97,0.00,,,0.00,Wunderground v.1.15,2013-01-04 12:09:00,
2013-01-04 07:18:00,66.0,65.1,30.17,WNW,297,0.0,0.0,97,0.00,,,0.00,Wunderground v.1.15,2013-01-04 12:18:00,
2013-01-04 07:28:00,66.1,65.2,30.17,WNW,298,0.0,0.0,97,0.00,,,0.00,Wunderground v.1.15,2013-01-04 12:28:00,
2013-01-04 07:39:00,66.1,65.2,30.17,WNW,298,0.0,0.0,97,0.00,,,0.00,Wunderground v.1.15,2013-01-04 12:39:00,
2013-01-04 07:49:00,66.6,65.7,30.18,WNW,300,0.0,0.0,97,0.00,,,0.00,Wunderground v.1.15,2013-01-04 12:49:00,
2013-01-04 07:58:00,67.1,66.2,30.18,WNW,300,0.0,0.0,97,0.00,,,0.00,Wunderground v.1.15,2013-01-04 12:58:00,
2013-01-04 08:08:00,67.7,66.8,30.19,NNW,342,1.0,1.0,97,0.00,,,0.00,Wunderground v.1.15,2013-01-04 13:08:00,
2013-01-04 08:19:00,68.4,67.5,30.19,North,352,2.0,2.0,97,0.00,,,0.00,Wunderground v.1.15,2013-01-04 13:19:00,
2013-01-04 08:28:00,69.0,67.8,30.20,NW,304,2.0,2.0,96,0.00,,,0.00,Wunderground v.1.15,2013-01-04 13:28:00,
2013-01-04 08:38:00,69.6,68.4,30.20,North,6,2.0,2.0,96,0.00,,,0.00,Wunderground v.1.15,2013-01-04 13:38:00,
2013-01-04 08:49:00,70.1,68.6,30.20,NNW,340,3.0,5.0,95,0.00,,,0.00,Wunderground v.1.15,2013-01-04 13:49:00,
2013-01-04 08:58:00,70.7,68.9,30.21,North,359,3.0,3.0,94,0.00,,,0.00,Wunderground v.1.15,2013-01-04 13:58:00,
2013-01-04 09:08:00,71.6,69.5,30.21,WNW,295,2.0,4.0,93,0.00,,,0.00,Wunderground v.1.15,2013-01-04 14:08:00,
2013-01-04 09:18:00,72.1,69.6,30.21,NW,318,3.0,3.0,92,0.00,,,0.00,Wunderground v.1.15,2013-01-04 14:18:00,
2013-01-04 09:28:00,72.8,70.0,30.21,NW,312,3.0,4.0,91,0.00,,,0.00,Wunderground v.1.15,2013-01-04 14:28:00,
2013-01-04 09:38:00,73.5,70.4,30.21,NNW,336,3.0,3.0,90,0.00,,,0.00,Wunderground v.1.15,2013-01-04 14:38:00,
2013-01-04 09:48:00,74.0,70.6,30.22,North,358,4.0,5.0,89,0.00,,,0.00,Wunderground v.1.15,2013-01-04 14:48:00,
2013-01-04 09:58:00,74.6,70.8,30.22,NW,306,3.0,3.0,88,0.00,,,0.00,Wunderground v.1.15,2013-01-04 14:58:00,
2013-01-04 10:09:00,75.5,71.4,30.22,NW,323,1.0,3.0,87,0.00,,,0.00,Wunderground v.1.15,2013-01-04 15:09:00,
2013-01-04 10:18:00,76.1,71.6,30.22,NW,323,2.0,2.0,86,0.00,,,0.00,Wunderground v.1.15,2013-01-04 15:18:00,
2013-01-04 10:28:00,76.9,71.7,30.21,SW,231,1.0,1.0,84,0.00,,,0.00,Wunderground v.1.15,2013-01-04 15:28:00,
2013-01-04 10:39:00,77.3,71.0,30.21,NW,311,2.0,4.0,81,0.00,,,0.00,Wunderground v.1.15,2013-01-04 15:39:00,
2013-01-04 10:49:00,77.6,70.9,30.21,WSW,256,2.0,2.0,80,0.00,,,0.00,Wunderground v.1.15,2013-01-04 15:49:00,
2013-01-04 10:58:00,77.7,71.0,30.21,WNW,287,2.0,2.0,80,0.00,,,0.00,Wunderground v.1.15,2013-01-04 15:58:00,
2013-01-04 11:08:00,78.0,71.3,30.21,ENE,60,2.0,2.0,80,0.00,,,0.00,Wunderground v.1.15,2013-01-04 16:08:00,
2013-01-04 11:19:00,78.6,70.8,30.20,WNW,284,3.0,3.0,77,0.00,,,0.00,Wunderground v.1.15,2013-01-04 16:19:00,
2013-01-04 11:28:00,78.4,70.6,30.20,NW,315,2.0,3.0,77,0.00,,,0.00,Wunderground v.1.15,2013-01-04 16:28:00,
2013-01-04 11:38:00,77.7,69.9,30.20,NNE,15,2.0,2.0,77,0.00,,,0.00,Wunderground v.1.15,2013-01-04 16:38:00,
2013-01-04 11:49:00,79.2,70.6,30.19,NW,304,1.0,1.0,75,0.00,,,0.00,Wunderground v.1.15,2013-01-04 16:49:00,
2013-01-04 11:59:00,79.7,71.5,30.18,NE,48,2.0,3.0,76,0.00,,,0.00,Wunderground v.1.15,2013-01-04 16:59:00,
2013-01-04 12:08:00,79.6,72.1,30.18,SSW,203,3.0,3.0,78,0.00,,,0.00,Wunderground v.1.15,2013-01-04 17:08:00,
2013-01-04 12:18:00,78.5,71.4,30.18,ENE,65,3.0,3.0,79,0.00,,,0.00,Wunderground v.1.15,2013-01-04 17:18:00,
2013-01-04 12:28:00,77.4,71.1,30.17,ENE,58,3.0,6.0,81,0.00,,,0.00,Wunderground v.1.15,2013-01-04 17:28:00,
2013-01-04 12:38:00,77.0,71.4,30.17,SE,134,4.0,4.0,83,0.00,,,0.00,Wunderground v.1.15,2013-01-04 17:38:00,
2013-01-04 12:48:00,76.6,71.4,30.17,ENE,64,3.0,4.0,84,0.00,,,0.00,Wunderground v.1.15,2013-01-04 17:48:00,
2013-01-04 12:59:00,76.6,72.1,30.16,SE,127,4.0,4.0,86,0.00,,,0.00,Wunderground v.1.15,2013-01-04 17:59:00,
2013-01-04 13:08:00,77.2,72.0,30.16,NE,43,4.0,4.0,84,0.00,,,0.00,Wunderground v.1.15,2013-01-04 18:08:00,
2013-01-04 13:18:00,77.9,72.0,30.16,ENE,59,4.0,6.0,82,0.00,,,0.00,Wunderground v.1.15,2013-01-04 18:18:00,
2013-01-04 13:29:00,78.2,72.3,30.15,NE,37,4.0,4.0,82,0.00,,,0.00,Wunderground v.1.15,2013-01-04 18:29:00,
2013-01-04 13:38:00,78.1,71.8,30.15,NNE,20,5.0,5.0,81,0.00,,,0.00,Wunderground v.1.15,2013-01-04 18:38:00,
2013-01-04 13:48:00,77.8,71.9,30.15,ESE,108,5.0,5.0,82,0.00,,,0.00,Wunderground v.1.15,2013-01-04 18:48:00,
2013-01-04 13:59:00,77.9,72.0,30.14,SE,134,5.0,5.0,82,0.00,,,0.00,Wunderground v.1.15,2013-01-04 18:59:00,
2013-01-04 14:08:00,77.9,71.6,30.14,ENE,58,4.0,4.0,81,0.00,,,0.00,Wunderground v.1.15,2013-01-04 19:08:00,
2013-01-04 14:18:00,78.0,71.3,30.14,ENE,65,5.0,7.0,80,0.00,,,0.00,Wunderground v.1.15,2013-01-04 19:18:00,
2013-01-04 14:29:00,77.8,71.5,30.14,ENE,59,6.0,6.0,81,0.00,,,0.00,Wunderground v.1.15,2013-01-04 19:29:00,
2013-01-04 14:38:00,77.9,72.0,30.14,East,79,5.0,5.0,82,0.00,,,0.00,Wunderground v.1.15,2013-01-04 19:38:00,
2013-01-04 14:48:00,77.5,71.2,30.14,NE,56,5.0,5.0,81,0.00,,,0.00,Wunderground v.1.15,2013-01-04 19:48:00,
2013-01-04 14:58:00,76.4,70.5,30.14,East,81,5.0,9.0,82,0.00,,,0.00,Wunderground v.1.15,2013-01-04 19:58:00,
2013-01-04 15:08:00,76.1,70.9,30.14,ESE,107,5.0,5.0,84,0.00,,,0.00,Wunderground v.1.15,2013-01-04 20:08:00,
2013-01-04 15:18:00,76.3,71.1,30.14,East,84,5.0,5.0,84,0.00,,,0.00,Wunderground v.1.15,2013-01-04 20:18:00,
2013-01-04 15:28:00,76.2,71.0,30.15,ENE,72,6.0,6.0,84,0.00,,,0.00,Wunderground v.1.15,2013-01-04 20:28:00,
2013-01-04 15:38:00,76.0,71.2,30.15,East,81,5.0,6.0,85,0.00,,,0.00,Wunderground v.1.15,2013-01-04 20:38:00,
2013-01-04 15:48:00,76.1,71.3,30.14,East,84,5.0,5.0,85,0.00,,,0.00,Wunderground v.1.15,2013-01-04 20:48:00,
2013-01-04 15:58:00,76.0,70.8,30.15,NE,46,6.0,8.0,84,0.00,,,0.00,Wunderground v.1.15,2013-01-04 20:58:00,
2013-01-04 16:08:00,76.2,71.4,30.15,ENE,59,5.0,5.0,85,0.00,,,0.00,Wunderground v.1.15,2013-01-04 21:08:00,
2013-01-04 16:18:00,76.3,71.1,30.15,East,79,4.0,4.0,84,0.00,,,0.00,Wunderground v.1.15,2013-01-04 21:18:00,
2013-01-04 16:28:00,76.2,71.4,30.15,ENE,65,4.0,4.0,85,0.00,,,0.00,Wunderground v.1.15,2013-01-04 21:28:00,
2013-01-04 16:39:00,75.9,70.7,30.16,ENE,71,5.0,5.0,84,0.00,,,0.00,Wunderground v.1.15,2013-01-04 21:39:00,
2013-01-04 16:48:00,75.9,71.1,30.16,ENE,65,5.0,7.0,85,0.00,,,0.00,Wunderground v.1.15,2013-01-04 21:48:00,
2013-01-04 16:58:00,75.5,71.0,30.16,East,81,4.0,4.0,86,0.00,,,0.00,Wunderground v.1.15,2013-01-04 21:58:00,
2013-01-04 17:08:00,75.1,70.6,30.16,NE,46,5.0,5.0,86,0.00,,,0.00,Wunderground v.1.15,2013-01-04 22:08:00,
2013-01-04 17:18:00,74.8,70.3,30.17,NE,34,5.0,5.0,86,0.00,,,0.00,Wunderground v.1.15,2013-01-04 22:18:00,
2013-01-04 17:28:00,74.6,70.5,30.17,ENE,57,5.0,5.0,87,0.00,,,0.00,Wunderground v.1.15,2013-01-04 22:28:00,
2013-01-04 17:38:00,74.4,70.3,30.17,NE,47,4.0,6.0,87,0.00,,,0.00,Wunderground v.1.15,2013-01-04 22:38:00,
2013-01-04 17:48:00,74.1,70.0,30.17,North,359,4.0,6.0,87,0.00,,,0.00,Wunderground v.1.15,2013-01-04 22:48:00,
2013-01-04 17:59:00,74.1,70.3,30.18,NE,39,4.0,4.0,88,0.00,,,0.00,Wunderground v.1.15,2013-01-04 22:59:00,
2013-01-04 18:08:00,73.9,69.8,30.18,NE,51,3.0,6.0,87,0.00,,,0.00,Wunderground v.1.15,2013-01-04 23:08:00,
2013-01-04 18:18:00,73.9,69.8,30.19,NNE,29,3.0,4.0,87,0.00,,,0.00,Wunderground v.1.15,2013-01-04 23:18:00,
2013-01-04 18:28:00,73.8,69.7,30.19,ENE,60,3.0,3.0,87,0.00,,,0.00,Wunderground v.1.15,2013-01-04 23:28:00,
2013-01-04 18:38:00,73.9,69.8,30.19,NE,47,3.0,7.0,87,0.00,,,0.00,Wunderground v.1.15,2013-01-04 23:38:00,
2013-01-04 18:48:00,73.9,69.8,30.19,NE,41,3.0,3.0,87,0.00,,,0.00,Wunderground v.1.15,2013-01-04 23:48:00,
2013-01-04 18:58:00,73.9,69.8,30.20,NE,44,3.0,3.0,87,0.00,,,0.00,Wunderground v.1.15,2013-01-04 23:58:00,
2013-01-04 19:08:00,74.0,69.9,30.21,NE,46,3.0,3.0,87,0.00,,,0.00,Wunderground v.1.15,2013-01-05 00:08:00,
2013-01-04 19:18:00,74.0,70.2,30.21,NE,41,4.0,4.0,88,0.00,,,0.00,Wunderground v.1.15,2013-01-05 00:18:00,
2013-01-04 19:28:00,74.0,70.2,30.21,NE,47,5.0,5.0,88,0.00,,,0.00,Wunderground v.1.15,2013-01-05 00:28:00,
2013-01-04 19:38:00,73.6,70.2,30.21,NE,48,5.0,5.0,89,0.00,,,0.00,Wunderground v.1.15,2013-01-05 00:38:00,
2013-01-04 19:48:00,73.3,70.2,30.22,NNE,18,3.0,5.0,90,0.00,,,0.00,Wunderground v.1.15,2013-01-05 00:48:00,
2013-01-04 19:58:00,73.1,70.0,30.22,NE,47,4.0,9.0,90,0.00,,,0.00,Wunderground v.1.15,2013-01-05 00:58:00,
2013-01-04 20:08:00,73.0,69.9,30.22,NE,46,5.0,5.0,90,0.00,,,0.00,Wunderground v.1.15,2013-01-05 01:08:00,
2013-01-04 20:18:00,72.7,69.9,30.23,NNE,17,4.0,5.0,91,0.00,,,0.00,Wunderground v.1.15,2013-01-05 01:18:00,
2013-01-04 20:28:00,72.5,69.7,30.23,NE,39,3.0,3.0,91,0.00,,,0.00,Wunderground v.1.15,2013-01-05 01:28:00,
2013-01-04 20:38:00,72.3,69.5,30.23,NNW,341,2.0,3.0,91,0.00,,,0.00,Wunderground v.1.15,2013-01-05 01:38:00,
2013-01-04 20:48:00,72.0,69.2,30.24,NNW,342,1.0,1.0,91,0.00,,,0.00,Wunderground v.1.15,2013-01-05 01:48:00,
2013-01-04 20:58:00,71.8,69.0,30.24,NNE,19,2.0,2.0,91,0.00,,,0.00,Wunderground v.1.15,2013-01-05 01:58:00,
2013-01-04 21:08:00,71.8,69.3,30.23,NNE,13,1.0,3.0,92,0.00,,,0.00,Wunderground v.1.15,2013-01-05 02:08:00,
2013-01-04 21:18:00,71.9,69.4,30.24,NE,37,3.0,4.0,92,0.00,,,0.00,Wunderground v.1.15,2013-01-05 02:18:00,
2013-01-04 21:28:00,71.8,69.3,30.24,NNE,15,4.0,4.0,92,0.00,,,0.00,Wunderground v.1.15,2013-01-05 02:28:00,
2013-01-04 21:38:00,71.4,69.0,30.24,North,349,3.0,3.0,92,0.00,,,0.00,Wunderground v.1.15,2013-01-05 02:38:00,
2013-01-04 21:48:00,71.1,68.7,30.24,NNW,338,3.0,4.0,92,0.00,,,0.00,Wunderground v.1.15,2013-01-05 02:48:00,
2013-01-04 21:58:00,70.8,68.4,30.24,NE,34,3.0,3.0,92,0.00,,,0.00,Wunderground v.1.15,2013-01-05 02:58:00,
2013-01-04 22:08:00,70.5,68.4,30.24,North,356,4.0,4.0,93,0.00,,,0.00,Wunderground v.1.15,2013-01-05 03:08:00,
2013-01-04 22:18:00,70.3,68.2,30.24,NNW,338,3.0,4.0,93,0.00,,,0.00,Wunderground v.1.15,2013-01-05 03:18:00,
2013-01-04 22:28:00,70.1,68.0,30.24,NNW,336,4.0,4.0,93,0.00,,,0.00,Wunderground v.1.15,2013-01-05 03:28:00,
2013-01-04 22:38:00,69.8,67.7,30.24,NNW,340,5.0,5.0,93,0.00,,,0.00,Wunderground v.1.15,2013-01-05 03:38:00,
2013-01-04 22:48:00,69.6,67.5,30.24,NNW,339,4.0,4.0,93,0.00,,,0.00,Wunderground v.1.15,2013-01-05 03:48:00,
2013-01-04 22:58:00,69.4,67.3,30.24,North,5,3.0,3.0,93,0.00,,,0.00,Wunderground v.1.15,2013-01-05 03:58:00,
2013-01-04 23:08:00,69.3,67.5,30.23,North,360,3.0,3.0,94,0.00,,,0.00,Wunderground v.1.15,2013-01-05 04:08:00,
2013-01-04 23:18:00,69.1,67.3,30.23,North,11,2.0,2.0,94,0.00,,,0.00,Wunderground v.1.15,2013-01-05 04:18:00,
2013-01-04 23:28:00,69.0,67.2,30.23,NNE,16,3.0,3.0,94,0.00,,,0.00,Wunderground v.1.15,2013-01-05 04:28:00,
2013-01-04 23:38:00,68.9,67.1,30.23,NNE,13,3.0,4.0,94,0.00,,,0.00,Wunderground v.1.15,2013-01-05 04:38:00,
2013-01-04 23:48:00,68.9,67.1,30.23,North,357,3.0,3.0,94,0.00,,,0.00,Wunderground v.1.15,2013-01-05 04:48:00,
2013-01-04 23:59:00,68.7,66.9,30.23,NNW,342,4.0,5.0,94,0.00,,,0.00,Wunderground v.1.15,2013-01-05 04:59:00,